Tracking 31029 objects as of 15-Jul-2025
HD Live streaming from Space Station
objects crossing your sky now

ATLAS 5 CENTAUR DEB

Track ATLAS 5 CENTAUR DEB now!


NORAD ID: 44006
Int'l Code: 2014-055BM
Perigee: 7,627.0 km
Apogee: 34,978.0 km
Inclination: 20.0 °
Period: 763.6 minutes
Semi major axis: 27673 km
RCS: Unknown
Launch date: September 17, 2014
Source: United States (US)
Launch site: AIR FORCE EASTERN TEST RANGE (AFETR)

Note: This is SATELLITE DEBRIS
Your satellite tracking list
Your tracking list is empty




NASA's NSSDC Master Catalog

Two Line Element Set (TLE):
1 44006U 14055BM  25193.19192186 -.00000039  00000-0  00000-0 0  9999
2 44006  20.0039 161.8784 4941740 135.9747 276.1762  1.88584957 46837
Source of the keplerian elements: AFSPC